Location: Blanot
(47.1713°N, 4.2340°E)
Time: 21:09:31
(UTC+00:00)

Meteor 1-4 Rocket - Pass Details

Date: 14 July 2020
Orbit: 448 x 503 km, 81.2° (Epoch: 14 August)

Event Time Altitude Azimuth Distance (km) Brightness Sun altitude
Rises 00:15:11 0° 351° (N) 2,591 7.6 -20.9°
Reaches altitude 10° 00:17:21 10° 355° (N) 1,696 6.4 -20.9°
Maximum altitude 00:21:02 64° 77° (ENE) 545 2.8 -20.8°
Enters shadow 00:21:25 59° 113° (ESE) 568 2.7 -20.8°
